DW7764 Weather Reports


Display with metric or nautical units.
time (UTC)temp
F
wind
direction
speed
MPH
gust
MPH
rain 1hr
in
rain 24hr
in
rain mn
in
humidity
%
barometer
mb
20260901070103 71 179 0.0 0.0 0.00 0.00 0.00 87 1024.1
20260901064604 69 181 0.0 0.0 0.00 0.00 0.00 90 1024.2
20260901063058 67 181 0.0 0.0 0.00 0.00 0.00 93 1024.2
20260901061602 67 181 0.0 0.0 0.00 0.00 0.00 93 1024.1
20260901060049 67 181 0.0 0.0 0.00 0.00 0.00 92 1024.0
20260901054552 67 181 0.0 0.0 0.00 0.00 0.00 92 1023.9
20260901053054 67 181 0.0 0.0 0.00 0.00 0.00 94 1023.9
20260901051547 67 181 0.0 0.0 0.00 0.00 0.00 93 1023.9
20260901050047 67 181 0.0 0.0 0.00 0.00 0.00 93 1023.8
20260901044604 68 181 0.0 1.0 0.00 0.00 0.00 93 1023.8
20260901043044 67 181 0.0 1.0 0.00 0.00 0.00 94 1023.9
20260901041543 67 181 0.0 1.0 0.00 0.00 0.00 94 1024.0
20260901040055 67 181 0.0 0.0 0.00 0.00 0.00 94 1024.0
20260901034541 68 181 0.0 0.0 0.00 0.00 0.00 93 1024.1
20260901033040 68 181 0.0 0.0 0.00 0.00 0.00 93 1024.1
20260901031537 68 181 0.0 0.0 0.00 0.00 0.00 93 1024.1
20260901030039 68 181 0.0 0.0 0.00 0.00 0.00 93 1024.1
20260901024536 69 181 0.0 0.0 0.00 0.00 0.00 91 1024.3
20260901023030 70 181 0.0 0.0 0.00 0.00 0.00 91 1024.5
20260901021530 70 181 0.0 0.0 0.00 0.00 0.00 91 1024.6
20260901020034 70 181 0.0 1.0 0.00 0.00 0.00 92 1024.8
20260901014525 70 181 0.0 0.0 0.00 0.00 0.00 92 1024.9
20260901013024 70 181 0.0 0.0 0.00 0.00 0.00 92 1024.8
20260901011527 71 181 0.0 0.0 0.00 0.00 0.00 90 1024.9
20260901010023 72 181 0.0 1.0 0.00 0.00 0.00 90 1024.9
20260901004519 71 181 0.0 2.0 0.00 0.00 0.00 90 1025.0
20260901003018 72 181 0.0 0.0 0.00 0.00 0.00 91 1025.0
20260901001519 72 181 0.0 0.0 0.00 0.00 0.00 91 1025.0
20260901000019 72 181 0.0 0.0 0.00 0.00 0.00 91 1025.1
20260831234515 72 181 0.0 0.0 0.00 0.00 0.00 91 1025.1
20260831233012 72 181 0.0 0.0 0.00 0.00 0.00 90 1025.1
20260831231523 72 181 0.0 0.0 0.00 0.00 0.00 90 1025.0
20260831230010 73 181 0.0 0.0 0.00 0.00 0.00 89 1025.0
20260831224524 73 181 0.0 0.0 0.00 0.00 0.00 89 1025.0
20260831223005 73 181 0.0 0.0 0.00 0.00 0.00 89 1024.9
20260831221502 73 181 0.0 0.0 0.00 0.00 0.00 89 1024.8
20260831220100 73 181 0.0 0.0 0.00 0.00 0.00 88 1024.9
20260831214603 74 181 0.0 1.0 0.00 0.00 0.00 88 1024.8
20260831213058 74 181 0.0 1.0 0.00 0.00 0.00 87 1024.7
20260831211607 75 118 0.0 4.0 0.00 0.00 0.00 86 1024.7
20260831210100 75 203 0.0 2.0 0.00 0.00 0.00 84 1024.6
20260831204554 76 148 0.0 5.0 0.00 0.00 0.00 84 1024.6
20260831203051 76 143 1.0 4.0 0.00 0.00 0.00 83 1024.5
20260831201548 76 111 1.0 5.0 0.00 0.00 0.00 81 1024.2
20260831200044 77 104 1.0 4.0 0.00 0.00 0.00 78 1024.0
20260831194553 77 132 1.0 3.0 0.00 0.00 0.00 75 1023.8
20260831193048 77 134 0.0 3.0 0.00 0.00 0.00 73 1023.5
20260831191546 77 137 1.0 6.0 0.00 0.00 0.00 71 1023.2
20260831190036 77 201 1.0 6.0 0.00 0.00 0.00 70 1023.1
20260831184534 78 149 2.0 5.0 0.00 0.00 0.00 70 1023.0
20260831183034 78 148 1.0 4.0 0.00 0.00 0.00 70 1022.7
20260831181533 78 142 3.0 7.0 0.00 0.00 0.00 70 1022.6
20260831180036 79 118 2.0 7.0 0.00 0.00 0.00 69 1022.5
20260831174533 80 107 1.0 5.0 0.00 0.00 0.00 68 1022.4
20260831173039 80 157 2.0 6.0 0.00 0.00 0.00 68 1022.4
20260831171531 80 173 2.0 7.0 0.00 0.00 0.00 68 1022.4
20260831170031 81 158 3.0 8.0 0.00 0.00 0.00 68 1022.5
20260831164531 82 135 3.0 11.0 0.00 0.00 0.00 68 1022.5
20260831163032 82 100 4.0 12.0 0.00 0.00 0.00 68 1022.5
20260831161532 82 125 5.0 8.0 0.00 0.00 0.00 69 1022.6
20260831160033 82 129 4.0 11.0 0.00 0.00 0.00 68 1022.5
20260831154554 83 158 3.0 9.0 0.00 0.00 0.00 66 1022.6
20260831153028 85 139 2.0 11.0 0.00 0.00 0.00 62 1022.6
20260831151532 85 117 3.0 12.0 0.00 0.00 0.00 62 1022.5
20260831150026 86 94 7.0 14.0 0.00 0.00 0.00 61 1022.6
20260831144528 87 194 5.0 12.0 0.00 0.00 0.00 61 1022.4
20260831143024 86 143 5.0 11.0 0.00 0.00 0.00 62 1022.4
20260831141523 86 99 5.0 10.0 0.00 0.00 0.00 62 1022.5
20260831140022 86 155 5.0 10.0 0.00 0.00 0.00 62 1022.4
20260831134523 84 148 4.0 12.0 0.00 0.00 0.00 68 1022.5
20260831133022 84 78 4.0 12.0 0.00 0.00 0.00 67 1022.5
20260831131522 83 164 6.0 12.0 0.00 0.00 0.00 67 1022.4
20260831130020 84 115 5.0 10.0 0.00 0.00 0.00 66 1022.5
20260831124539 85 135 3.0 10.0 0.00 0.00 0.00 61 1022.7
20260831123019 86 98 6.0 13.0 0.00 0.00 0.00 60 1022.8
20260831121517 86 108 2.0 12.0 0.00 0.00 0.00 60 1022.8
20260831120019 85 120 2.0 8.0 0.00 0.00 0.00 62 1023.0
20260831114517 85 148 0.0 9.0 0.00 0.00 0.00 61 1023.0
20260831113016 85 162 4.0 12.0 0.00 0.00 0.00 60 1023.0
20260831111515 85 146 2.0 9.0 0.00 0.00 0.00 57 1023.0
20260831110021 87 122 1.0 5.0 0.00 0.00 0.00 55 1023.1
20260831104514 86 98 0.0 7.0 0.00 0.00 0.00 56 1023.2
20260831103013 85 135 2.0 5.0 0.00 0.00 0.00 57 1023.2
20260831101511 85 193 5.0 8.0 0.00 0.00 0.00 55 1023.3
20260831100013 85 72 1.0 7.0 0.00 0.00 0.00 57 1023.4
20260831094509 84 207 0.0 7.0 0.00 0.00 0.00 59 1023.4
20260831093009 84 118 0.0 6.0 0.00 0.00 0.00 60 1023.5
20260831091503 82 276 2.0 7.0 0.00 0.00 0.00 62 1023.5
20260831090104 81 323 0.0 5.0 0.00 0.00 0.00 64 1023.5
20260831084602 80 274 0.0 6.0 0.00 0.00 0.00 68 1023.5
20260831083055 80 280 0.0 5.0 0.00 0.00 0.00 68 1023.4
20260831081558 79 281 0.0 3.0 0.00 0.00 0.00 64 1023.3
20260831080048 78 281 0.0 0.0 0.00 0.00 0.00 63 1023.3
20260831074545 75 281 0.0 0.0 0.00 0.00 0.00 63 1023.3
20260831073043 72 281 0.0 0.0 0.00 0.00 0.00 59 1023.2
20260831071600 70 281 0.0 0.0 0.00 0.00 0.00 61 1023.1